TimeMDT,TemperatureF,Dew PointF,Humidity,Sea Level PressureIn,VisibilityMPH,Wind Direction,Wind SpeedMPH,Gust SpeedMPH,PrecipitationIn,Events,Conditions,WindDirDegrees,DateUTC
12:51 AM,73.0,18.0,12,29.69,10.0,West,10.4,-,N/A,,Scattered Clouds,270,2013-04-07 06:51:00
1:51 AM,71.1,17.1,13,29.70,10.0,NW,8.1,-,N/A,,Scattered Clouds,310,2013-04-07 07:51:00
2:51 AM,70.0,19.0,14,29.69,10.0,WNW,9.2,-,N/A,,Scattered Clouds,290,2013-04-07 08:51:00
3:51 AM,66.9,19.0,16,29.69,10.0,Variable,6.9,-,N/A,,Scattered Clouds,0,2013-04-07 09:51:00
4:51 AM,63.0,19.0,18,29.71,10.0,Variable,6.9,-,N/A,,Scattered Clouds,0,2013-04-07 10:51:00
5:51 AM,60.1,19.0,20,29.72,10.0,SW,8.1,-,N/A,,Scattered Clouds,230,2013-04-07 11:51:00
6:51 AM,62.1,19.9,20,29.73,10.0,SW,10.4,-,N/A,,Scattered Clouds,230,2013-04-07 12:51:00
7:51 AM,64.9,21.0,19,29.74,10.0,WSW,8.1,-,N/A,,Clear,240,2013-04-07 13:51:00
8:51 AM,70.0,21.9,16,29.75,10.0,West,16.1,-,N/A,,Clear,260,2013-04-07 14:51:00
9:51 AM,71.1,21.9,16,29.76,10.0,WSW,16.1,-,N/A,,Clear,240,2013-04-07 15:51:00
10:51 AM,73.9,21.9,14,29.75,10.0,West,11.5,23.0,N/A,,Partly Cloudy,260,2013-04-07 16:51:00
11:51 AM,77.0,24.1,14,29.73,10.0,WSW,19.6,27.6,N/A,,Partly Cloudy,240,2013-04-07 17:51:00
12:51 PM,77.0,23.0,13,29.70,10.0,West,13.8,28.8,N/A,,Partly Cloudy,260,2013-04-07 18:51:00
1:51 PM,81.0,24.1,12,29.65,10.0,West,17.3,25.3,N/A,,Partly Cloudy,260,2013-04-07 19:51:00
2:51 PM,82.0,21.9,11,29.62,10.0,West,12.7,-,N/A,,Partly Cloudy,260,2013-04-07 20:51:00
3:51 PM,82.0,21.0,10,29.60,10.0,SW,17.3,31.1,N/A,,Partly Cloudy,230,2013-04-07 21:51:00
4:51 PM,82.9,19.0,9,29.59,10.0,SW,13.8,29.9,N/A,,Partly Cloudy,230,2013-04-07 22:51:00
5:51 PM,82.9,17.1,9,29.57,10.0,WSW,16.1,21.9,N/A,,Partly Cloudy,240,2013-04-07 23:51:00
6:51 PM,82.0,16.0,8,29.57,10.0,West,19.6,-,N/A,,Partly Cloudy,260,2013-04-08 00:51:00
7:51 PM,80.1,16.0,9,29.57,10.0,West,18.4,24.2,N/A,,Partly Cloudy,260,2013-04-08 01:51:00
8:51 PM,78.1,16.0,10,29.58,10.0,West,15.0,-,N/A,,Partly Cloudy,260,2013-04-08 02:51:00
9:51 PM,77.0,17.1,10,29.60,10.0,West,23.0,31.1,N/A,,Clear,270,2013-04-08 03:51:00
10:51 PM,75.9,18.0,11,29.60,10.0,West,21.9,29.9,N/A,,Clear,260,2013-04-08 04:51:00
11:51 PM,75.0,18.0,12,29.59,10.0,West,15.0,21.9,N/A,,Clear,270,2013-04-08 05:51:00